Weather History for Grand Rapids, MI

Change the Weather History Date:

Saturday, June 7, 2014

  Actual Average Record
Temperature  
Mean Temperature 69 °F 66 °F  
Max Temperature 84 °F 77 °F 94 °F (2011)
Min Temperature 54 °F 55 °F 38 °F (1958)
Degree Days  
Heating Degree Days 0 2  
Month to date heating degree days 3 21  
Since 1 June heating degree days 3 21  
Since 1 July heating degree days 7203 6461  
Cooling Degree Days 4 3  
Month to date cooling degree days 26 21  
Year to date cooling degree days 79 68  
Since 1 June cooling degree days 26 21  
Growing Degree Days 19 (Base 50)    
Moisture  
Dew Point 49 °F    
Average Humidity 56    
Maximum Humidity 86    
Minimum Humidity 26    
Precipitation  
Precipitation 0.00 in 0.12 in 1.87 in (1939)
Month to date precipitation 0.29 0.89  
Year to date precipitation 13.56 14.47  
Snow  
Snow 0.00 in 0.00 in 0.00 in (2007)
Month to date snowfall 0.0 0.0  
Since 1 June snowfall 0.0 0.0  
Since 1 July snowfall 116.0 74.9  
Snow Depth 0.00 in    
Sea Level Pressure  
Sea Level Pressure 29.96 in    
Wind  
Wind Speed 6 mph (SE)    
Max Wind Speed 15 mph    
Max Gust Speed 19 mph    
Visibility 10 miles    
Events      
T = Trace of Precipitation, MM = Missing Value Source: NWS Daily Summary

Daily Weather History Graph

Daily Weather History Graph

Search for Another Location

Airport:

Trip Planner

Search our weather history database for the weather conditions in past years. The results will help you decide how hot, cold, wet, or windy it might be!

Date:

Astronomy

Jun. 07, 2014 Rise Set
Actual Time 6:03 AM EDT 9:18 PM EDT
Civil Twilight 5:29 AM EDT 9:53 PM EDT
Nautical Twilight 4:44 AM EDT 10:38 PM EDT
Astronomical Twilight 3:49 AM EDT 11:33 PM EDT
Moon 3:27 PM EDT (6/7) 2:33 AM EDT (6/7)
Length of Visible Light 16h 24m
Length of Day
15h 14m
Waxing Gibbous, 67% of the Moon is Illuminated
Jun 7
Waxing Gibbous
Jun 13
Full
Jun 19
Last Quarter
Jun 27
New
Jul 5
First Quarter

Hourly Weather History & Observations

Time (EDT) Temp. Dew Point Humidity Pressure Visibility Wind Dir Wind Speed Gust Speed Precip Events Conditions
12:53 AM 61.0 °F 48.9 °F 64% 30.01 in 10.0 mi South 3.5 mph - N/A   Clear
1:53 AM 60.1 °F 48.9 °F 67% 30.02 in 10.0 mi WSW 3.5 mph - N/A   Clear
2:53 AM 57.9 °F 50.0 °F 75% 30.02 in 10.0 mi ESE 3.5 mph - N/A   Clear
3:53 AM 55.9 °F 51.1 °F 84% 30.01 in 10.0 mi East 3.5 mph - N/A   Clear
4:53 AM 55.4 °F 50.0 °F 82% 30.02 in 10.0 mi East 3.5 mph - N/A   Clear
5:53 AM 55.0 °F 48.9 °F 80% 30.03 in 10.0 mi Calm Calm - N/A   Clear
6:53 AM 55.9 °F 51.1 °F 84% 30.05 in 10.0 mi East 3.5 mph - N/A   Partly Cloudy
7:53 AM 60.8 °F 53.6 °F 77% 30.05 in 10.0 mi East 3.5 mph - N/A   Partly Cloudy
8:53 AM 69.8 °F 53.6 °F 56% 30.03 in 10.0 mi ESE 3.5 mph - N/A   Partly Cloudy
9:53 AM 75.9 °F 51.1 °F 42% 30.01 in 10.0 mi SE 5.8 mph - N/A   Partly Cloudy
10:53 AM 80.1 °F 50.0 °F 35% 29.99 in 10.0 mi ESE 9.2 mph - N/A   Partly Cloudy
11:53 AM 80.1 °F 48.0 °F 32% 30.00 in 10.0 mi South 8.1 mph 18.4 mph N/A   Scattered Clouds
12:53 PM 82.0 °F 45.0 °F 27% 29.99 in 10.0 mi South 6.9 mph - N/A   Mostly Cloudy
1:53 PM 82.0 °F 45.0 °F 27% 29.97 in 10.0 mi ESE 6.9 mph - N/A   Mostly Cloudy
2:53 PM 82.0 °F 46.0 °F 28% 29.95 in 10.0 mi SSE 10.4 mph - N/A   Mostly Cloudy
3:53 PM 84.0 °F 46.9 °F 27% 29.92 in 10.0 mi South 10.4 mph - N/A   Mostly Cloudy
4:53 PM 82.9 °F 46.0 °F 27% 29.91 in 10.0 mi SSE 5.8 mph - N/A   Mostly Cloudy
5:53 PM 82.0 °F 45.0 °F 27% 29.91 in 10.0 mi SE 5.8 mph - N/A   Mostly Cloudy
6:53 PM 80.1 °F 46.9 °F 31% 29.90 in 10.0 mi SSE 4.6 mph - N/A   Mostly Cloudy
7:53 PM 78.1 °F 48.0 °F 35% 29.88 in 10.0 mi ESE 5.8 mph - N/A   Mostly Cloudy
8:53 PM 75.0 °F 51.1 °F 43% 29.87 in 7.0 mi East 4.6 mph - N/A   Overcast
9:53 PM 75.0 °F 50.0 °F 41% 29.87 in 10.0 mi NW 8.1 mph - N/A   Overcast
10:53 PM 72.0 °F 52.0 °F 49% 29.87 in 10.0 mi North 6.9 mph - N/A   Overcast
11:53 PM 69.1 °F 54.0 °F 58% 29.86 in 10.0 mi ENE 5.8 mph - N/A   Overcast